Temperature
6 4 4 5 5 6 6 6 7 7 8 8 8 8 8 8 9 8 9 9 9 10 10 10 10 11 11 11 11 11 11 11 11 11 11 11 11 11 11 11 12 12 12 11
4 4 5 6 6 6 6 6 6 7 8 8 7 7 7 8 8 8 9 9 9 9 9 10 10 10 10 10 10 11 10 11 11 11 11 11 11 11 11 11 11 11 11 11
4 5 6 6 6 6 6 6 6 6 7 7 7 7 7 8 8 8 8 9 9 9 9 9 9 10 10 10 10 10 10 10 10 10 10 10 10 10 10 10 10 10 11 11
4 5 6 6 6 5 6 7 7 7 6 6 7 6 7 7 7 8 8 8 8 9 9 9 9 9 10 10 10 10 10 10 10 10 10 10 10 10 10 10 10 10 10 10
4 5 5 5 6 6 6 7 7 6 6 5 6 6 6 7 7 7 7 8 8 9 9 9 9 9 10 10 10 10 10 10 10 10 10 10 10 10 10 9 9 10 10 10
4 5 5 5 6 6 6 6 6 5 4 5 6 6 6 6 7 7 7 7 8 8 9 9 9 9 9 9 9 9 9 9 9 9 9 9 9 9 9 9 9 9 9 9
4 5 5 6 5 5 5 4 4 4 4 5 6 6 6 7 7 7 7 7 8 8 8 8 9 9 9 9 9 9 9 9 9 9 9 9 9 9 9 9 8 8 9 9
3 4 4 5 5 4 4 4 4 5 5 5 5 6 6 6 7 7 7 7 7 8 8 8 8 8 8 8 9 9 9 9 8 9 9 9 9 8 8 8 8 8 8 8
3 3 4 5 5 5 4 4 4 4 4 4 5 5 5 6 6 6 6 6 7 7 8 8 8 8 8 8 8 8 8 8 8 8 8 8 8 8 8 8 8 8 8 8
3 3 4 4 5 5 4 4 3 3 4 5 5 5 5 5 5 5 5 5 6 7 7 7 7 8 8 8 8 8 8 8 8 8 8 8 8 8 7 7 7 7 7 7
2 2 3 3 3 3 3 3 3 2 3 4 5 5 5 5 5 5 4 5 6 6 7 7 7 7 7 7 7 8 8 8 8 8 8 7 7 7 7 7 7 6 7 6
2 1 2 2 3 3 3 3 2 3 2 2 3 5 5 4 4 5 5 5 5 6 6 6 6 7 7 7 7 7 7 7 7 7 7 7 7 7 6 6 6 6 6 6
2 1 2 3 3 2 2 2 2 1 1 1 2 4 5 4 4 4 4 5 5 5 5 5 6 6 6 6 7 7 7 7 7 7 6 6 6 6 6 6 6 5 5 5
2 0 2 3 3 2 2 2 2 2 2 2 2 3 4 4 3 4 4 4 4 4 5 5 5 5 6 6 6 6 6 6 6 6 6 6 6 5 5 5 5 5 5 5
1 0 -0 1 1 2 2 2 2 2 2 2 3 3 3 3 3 4 4 4 4 4 4 4 4 4 5 5 5 5 5 6 5 5 5 5 5 5 5 4 4 4 4 4
-1 -0 -0 1 1 2 2 2 2 2 2 1 2 2 2 3 3 3 3 3 3 3 3 4 4 4 4 5 5 5 5 5 5 5 4 4 4 4 4 4 4 4 4 4
-2 -1 -0 1 0 1 2 2 1 1 1 1 2 2 2 2 2 2 3 3 3 3 3 3 3 4 4 4 4 4 4 4 4 4 4 4 4 3 3 3 3 3 3 3
-2 -2 -1 -1 0 2 3 1 1 1 1 0 1 1 1 2 2 3 3 3 3 3 3 3 3 3 3 3 3 4 4 4 3 3 3 3 3 3 3 3 3 3 3 3
-1 -1 -2 -1 -1 0 2 1 0 1 1 0 0 0 1 2 1 2 2 2 3 3 3 3 3 3 3 3 3 3 3 3 3 3 3 2 2 2 2 2 2 2 2 2
-2 -2 -2 -2 -0 1 2 1 1 1 1 0 -0 -0 0 1 0 1 2 2 2 2 2 2 2 2 2 2 2 2 2 2 2 2 2 2 2 2 2 2 2 1 1 1
-2 -3 -2 -2 -1 -0 0 0 1 2 2 1 1 1 0 -0 1 2 2 2 2 2 2 2 2 1 1 2 2 2 2 2 2 2 1 1 1 1 1 1 1 1 1 1
-2 -3 -3 -3 -2 -0 -0 -1 -0 1 1 1 1 1 1 1 1 1 1 1 1 1 1 1 1 1 1 1 1 1 1 1 1 1 1 1 1 0 0 0 0 0 -0 -0
-3 -2 -2 -2 -0 -0 -0 0 1 1 1 1 1 1 0 0 0 0 0 1 1 1 1 0 0 1 1 0 0 1 1 0 0 1 0 0 0 -0 -0 -0 -0 -1 -1 -1
-3 -3 -3 -3 -2 -1 -1 0 0 1 1 1 1 0 0 0 -0 -0 -0 -0 -0 -0 -0 -0 -0 -0 0 0 -0 -0 -0 -0 -0 -0 -0 -0 -1 -1 -1 -1 -1 -1 -1 -1
-2 -3 -3 -3 -2 -2 -0 0 1 0 0 0 0 0 -0 -0 -0 -1 -1 -1 -1 -1 -1 -1 -1 -1 -1 -1 -1 -1 -1 -1 -1 -1 -1 -1 -1 -1 -1 -1 -1 -1 -1 -2
-4 -3 -3 -1 -1 -1 0 1 1 0 0 -0 -0 -0 -1 -1 -1 -1 -1 -1 -1 -1 -1 -1 -1 -1 -1 -1 -1 -1 -2 -2 -1 -1 -1 -1 -1 -2 -2 -2 -2 -2 -2 -2
Wind_Speed
2 3 3 6 6 5 3 3 5 6 3 2 5 7 8 6 3 5 5 5 5 5 4 4 4 4 4 4 4 5 5 6 5 4 3 3 3 3 2 2 2 3 3 4
2 3 6 5 3 3 4 4 5 4 3 2 4 7 7 6 5 5 6 6 6 4 3 3 3 3 4 4 4 4 5 5 5 5 4 3 3 2 2 2 2 2 3 3
4 4 3 3 2 2 5 5 5 4 5 2 1 6 6 5 3 2 3 4 4 5 6 5 4 4 4 4 4 4 4 5 4 4 4 3 2 1 1 1 1 2 3 3
2 4 3 2 3 3 5 4 4 4 2 3 2 4 7 5 4 3 3 3 3 4 5 5 5 4 4 5 4 4 4 4 4 4 5 6 4 3 3 3 2 1 2 3
3 2 2 3 5 4 4 3 4 4 2 3 3 3 6 3 5 6 5 4 4 4 5 6 6 5 4 3 4 4 3 4 4 4 5 6 4 3 2 2 2 1 1 1
3 3 2 3 4 3 2 2 2 2 1 4 6 5 6 5 7 5 4 4 4 4 4 4 4 3 3 2 3 3 3 3 3 4 4 5 6 4 3 3 3 2 1 1
4 3 2 1 1 2 2 3 2 2 1 6 4 4 7 5 5 5 6 6 5 4 4 3 3 3 3 3 3 3 3 3 3 4 4 5 6 6 6 5 4 3 2 2
0 4 3 1 2 2 3 4 4 3 4 4 3 5 6 4 3 2 3 4 4 4 4 4 4 4 4 4 3 3 4 3 3 3 4 4 4 4 4 4 4 4 4 3
3 4 2 1 1 4 3 3 3 2 1 2 4 5 6 3 3 2 2 2 3 4 4 4 3 3 3 3 4 4 4 3 3 3 3 3 3 3 3 3 3 3 3 2
3 3 3 2 1 1 2 3 3 3 2 3 4 4 4 5 5 4 3 3 3 3 3 3 3 2 2 2 2 2 3 4 3 3 3 3 2 2 3 2 2 2 3 2
1 2 3 1 2 4 1 2 2 3 3 3 3 6 4 6 5 5 4 3 3 2 3 2 2 1 1 1 1 2 2 3 3 3 3 3 2 2 2 2 2 2 2 2
1 2 2 4 3 3 4 4 5 3 4 3 3 7 3 3 4 4 4 3 2 1 1 1 0 1 1 0 1 1 2 3 3 3 3 3 2 2 2 2 2 2 3 2
2 3 1 3 2 1 2 3 4 3 2 4 4 7 3 2 2 1 2 1 2 1 0 0 0 0 0 1 1 1 2 2 2 3 3 2 2 2 2 2 2 2 2 2
3 2 5 7 5 4 5 4 4 4 4 5 7 8 7 5 4 4 3 2 2 1 1 1 1 1 1 1 1 1 2 2 2 2 3 2 2 2 2 2 2 2 2 2
3 3 4 6 7 6 7 8 7 8 8 8 8 8 10 7 6 5 4 2 1 2 2 2 2 2 2 2 2 2 1 1 2 2 2 2 2 1 1 1 1 1 1 1
2 2 1 4 4 5 7 9 10 10 8 10 9 11 9 7 4 4 4 3 3 3 3 3 2 2 2 2 2 2 2 1 1 2 2 1 1 1 1 1 0 0 1 1
2 2 0 4 3 3 7 9 10 7 7 7 10 10 5 4 5 6 5 4 5 4 3 4 4 4 4 3 3 3 2 1 1 2 1 1 1 1 1 1 0 0 1 1
5 3 2 1 2 5 6 2 5 7 6 6 6 6 4 6 5 4 3 4 5 4 4 4 4 3 3 3 2 2 1 1 2 2 2 1 1 1 1 0 0 1 0 0
5 5 2 1 3 7 6 3 3 5 6 5 7 7 6 5 4 4 4 3 5 5 5 4 4 3 3 2 2 1 1 1 1 2 2 1 1 1 0 0 0 1 1 1
3 3 3 3 3 6 5 3 2 2 5 4 5 6 4 1 2 6 4 3 4 4 3 3 2 2 2 3 1 1 1 1 2 2 2 2 1 1 1 1 0 1 1 1
2 2 4 5 5 8 6 2 2 3 6 3 3 4 3 4 6 5 3 3 4 3 3 2 1 2 3 2 1 2 2 3 3 2 1 1 1 1 1 0 0 0 0 0
6 5 6 5 5 8 3 4 5 6 3 2 3 3 4 5 5 4 3 3 3 3 2 1 1 2 2 1 2 2 3 3 2 1 1 1 1 1 1 1 0 0 1 1
7 8 6 8 8 4 3 5 4 2 3 3 3 3 3 4 4 4 3 3 2 2 2 2 1 2 2 1 2 2 3 2 1 1 1 1 0 0 1 1 1 0 0 1
4 3 4 5 8 6 5 5 4 4 4 4 4 4 3 4 4 4 3 3 2 2 2 1 1 1 2 2 1 2 2 1 1 1 1 1 1 0 0 0 1 1 1 1
6 5 4 6 7 5 6 6 6 5 4 4 4 3 4 4 4 4 3 3 3 2 2 1 2 2 3 2 2 1 1 1 1 1 1 1 1 1 0 1 1 1 2 2
5 7 7 8 7 5 6 5 4 5 5 5 4 4 3 4 5 4 4 3 3 3 2 2 2 2 2 2 2 1 1 2 2 2 2 1 1 1 1 1 2 2 2 3
Wind_Direction
89 95 210 224 216 222 228 229 260 256 256 228 247 266 278 281 226 210 205 194 190 202 214 194 182 166 156 151 159 172 181 174 164 161 167 172 175 174 171 165 147 151 156 158
67 243 243 241 225 225 236 251 253 278 285 248 246 273 277 266 236 211 198 199 202 205 214 206 180 164 172 173 175 179 186 179 175 177 182 184 178 176 178 157 146 152 156 164
193 242 255 216 212 225 248 228 233 251 296 286 246 288 273 270 247 228 204 200 208 202 198 198 189 184 182 185 183 184 197 185 181 169 152 134 129 121 127 172 194 183 174 171
254 271 259 240 230 217 251 226 235 250 253 270 199 258 270 259 262 243 234 230 233 223 202 192 190 190 189 198 190 177 191 184 177 168 167 169 176 184 204 197 198 193 178 181
257 268 211 238 246 213 235 253 253 256 232 290 257 221 270 241 242 249 240 230 231 220 196 188 191 190 182 185 184 178 185 182 174 172 177 177 182 188 171 172 173 195 216 194
254 266 216 240 247 214 243 350 5 23 60 253 238 204 257 234 228 241 235 229 224 213 202 190 183 176 167 164 172 170 185 173 175 175 180 184 180 175 169 184 189 201 223 233
320 297 286 261 297 341 60 84 36 356 307 245 241 223 247 245 233 217 217 222 223 211 200 193 179 175 178 181 180 181 176 172 185 185 185 193 186 181 186 193 198 203 221 242
8 291 272 275 188 202 213 154 164 205 233 277 271 237 255 265 263 249 225 214 216 214 204 197 186 186 190 195 194 188 181 182 187 197 198 192 182 184 198 201 202 207 218 230
187 255 280 253 242 154 158 183 174 146 267 266 262 280 296 297 315 297 266 238 231 215 199 196 188 184 187 206 210 187 180 184 194 197 195 185 182 183 193 209 213 210 217 221
176 244 281 278 59 36 150 150 108 134 195 259 279 262 257 270 266 274 268 250 240 221 207 200 193 196 208 219 220 194 189 193 193 188 192 189 187 191 189 186 206 222 218 214
145 179 289 350 189 202 156 144 139 161 191 196 254 266 233 230 231 229 247 262 258 236 209 201 192 169 175 207 186 194 202 195 193 188 190 187 193 190 187 193 214 229 227 210
162 143 249 252 258 205 186 188 169 186 235 214 212 266 282 250 240 214 229 258 274 253 203 171 153 90 71 16 207 200 207 199 203 189 181 192 196 186 195 217 230 229 227 219
154 133 48 331 316 312 231 206 190 177 186 207 208 262 317 337 315 252 224 260 294 274 241 123 77 68 21 282 289 245 220 208 198 173 171 185 196 204 212 228 231 236 235 237
129 155 195 214 232 219 244 236 200 178 207 233 231 254 291 299 288 283 269 256 266 270 240 223 237 263 261 258 269 272 245 209 181 168 166 189 209 213 216 230 232 240 239 236
124 200 236 259 259 236 243 239 220 215 216 225 248 249 262 266 257 254 253 253 268 288 283 270 248 258 264 278 285 285 280 217 168 164 171 207 222 209 202 220 241 261 264 272
121 185 248 280 264 256 259 248 234 235 233 240 257 266 265 269 269 265 254 234 235 244 250 261 263 263 261 261 269 282 290 267 174 170 187 195 195 190 216 226 222 13 335 345
159 146 180 271 302 323 265 237 215 220 221 211 233 252 280 279 265 254 248 239 239 240 244 250 253 254 252 251 246 248 253 245 184 181 186 191 184 184 246 267 29 351 315 1
163 164 189 273 25 244 248 210 194 215 241 228 247 277 272 267 276 276 253 237 252 255 252 253 258 266 270 264 260 252 234 194 189 187 195 204 182 187 239 255 10 319 338 6
176 165 161 174 252 272 289 265 191 207 263 237 243 269 281 295 323 303 287 256 247 251 254 250 244 251 259 261 255 224 209 188 185 202 215 217 181 172 247 329 344 337 17 6
111 134 150 170 222 245 255 265 204 147 273 253 230 258 276 329 282 276 294 286 275 270 262 255 264 269 259 268 239 190 214 207 226 236 234 220 181 181 221 240 326 9 27 344
153 153 185 200 234 263 258 257 131 179 255 280 230 251 243 224 241 273 293 284 278 269 265 255 240 246 256 260 198 200 221 237 246 244 227 204 174 188 194 140 65 79 36 49
181 178 195 178 214 255 222 144 182 224 279 278 253 244 239 253 272 284 289 286 293 302 299 274 233 262 274 244 185 215 245 256 251 203 195 196 182 188 149 130 69 108 134 133
202 196 192 198 218 257 193 209 236 226 251 265 254 259 243 261 272 278 286 289 292 293 287 278 233 260 282 255 198 222 264 269 218 191 210 209 206 186 158 157 173 158 146 170
245 198 198 244 260 260 257 257 270 256 253 260 258 257 242 247 259 269 276 277 284 294 289 278 260 259 277 284 257 236 261 268 195 207 217 197 185 223 237 208 213 211 212 216
223 185 212 253 271 286 269 246 252 264 263 266 273 263 244 240 253 252 264 267 264 276 282 263 243 252 264 274 274 262 248 207 201 231 237 224 209 197 227 289 272 256 246 228
203 193 198 236 233 221 255 249 239 242 250 250 253 264 261 237 245 247 254 257 258 263 269 268 265 266 267 263 267 267 242 206 196 218 235 232 219 215 215 273 320 317 272 277
Height
1504 1508 1509 1507 1507 1506 1506 1506 1505 1501 1497 1499 1499 1497 1493 1491 1490 1490 1490 1490 1491 1492 1493 1494 1497 1499 1501 1502 1504 1506 1508 1509 1511 1513 1514 1516 1517 1519 1521 1522 1524 1525 1526 1527
1507 1508 1505 1504 1504 1505 1506 1506 1504 1499 1497 1498 1497 1496 1492 1489 1487 1487 1487 1487 1488 1489 1490 1491 1493 1495 1497 1499 1501 1503 1504 1506 1507 1509 1511 1513 1514 1516 1517 1519 1520 1521 1523 1524
1507 1506 1502 1503 1504 1505 1504 1505 1503 1501 1498 1497 1497 1495 1491 1487 1486 1485 1485 1485 1485 1486 1486 1488 1490 1492 1494 1495 1497 1499 1501 1502 1504 1506 1508 1509 1511 1512 1514 1515 1516 1518 1519 1520
1506 1503 1502 1502 1503 1504 1503 1500 1500 1500 1502 1503 1499 1501 1491 1487 1484 1483 1483 1482 1482 1483 1483 1484 1487 1489 1491 1493 1495 1496 1498 1499 1501 1502 1504 1505 1505 1506 1508 1510 1512 1514 1515 1517
1506 1502 1502 1502 1501 1501 1501 1498 1499 1499 1502 1504 1500 1503 1492 1485 1484 1481 1480 1480 1480 1480 1481 1482 1484 1486 1488 1490 1492 1493 1495 1496 1497 1499 1501 1502 1503 1504 1505 1507 1509 1510 1511 1512
1504 1501 1501 1501 1499 1499 1499 1500 1500 1503 1506 1506 1498 1501 1492 1485 1480 1478 1478 1478 1478 1478 1478 1480 1481 1484 1486 1488 1489 1491 1492 1492 1494 1495 1497 1498 1499 1500 1501 1502 1504 1505 1506 1508
1505 1501 1500 1499 1499 1499 1501 1506 1512 1511 1514 1505 1494 1494 1487 1478 1476 1475 1476 1475 1475 1476 1476 1477 1479 1480 1482 1484 1486 1488 1489 1489 1490 1492 1494 1495 1495 1497 1497 1498 1499 1500 1502 1502
1511 1507 1501 1499 1500 1502 1503 1506 1513 1512 1509 1502 1495 1491 1483 1476 1474 1473 1473 1473 1473 1473 1474 1475 1477 1479 1480 1481 1483 1484 1486 1486 1488 1489 1491 1492 1492 1493 1494 1495 1495 1496 1497 1498
1510 1507 1499 1498 1498 1500 1503 1507 1506 1511 1510 1507 1498 1490 1480 1474 1473 1472 1472 1472 1471 1471 1472 1473 1475 1476 1478 1479 1481 1482 1483 1484 1485 1486 1488 1488 1489 1490 1490 1491 1491 1492 1493 1494
1507 1508 1501 1499 1498 1500 1501 1503 1509 1512 1509 1503 1495 1491 1484 1477 1474 1472 1471 1470 1470 1470 1470 1471 1473 1474 1475 1477 1478 1479 1480 1481 1482 1483 1484 1485 1486 1487 1487 1488 1488 1488 1488 1489
1505 1509 1505 1502 1502 1502 1503 1505 1507 1511 1510 1506 1499 1489 1476 1474 1472 1472 1471 1470 1469 1468 1469 1470 1471 1472 1473 1475 1476 1477 1478 1478 1479 1480 1481 1482 1482 1483 1483 1484 1484 1484 1484 1484
1505 1508 1509 1504 1500 1499 1500 1502 1506 1508 1508 1507 1503 1489 1471 1471 1470 1470 1470 1469 1469 1468 1468 1469 1469 1470 1471 1472 1473 1474 1475 1476 1477 1477 1478 1479 1479 1479 1479 1480 1480 1480 1480 1480
1503 1507 1509 1503 1505 1503 1502 1501 1502 1505 1507 1507 1502 1487 1471 1469 1469 1469 1469 1469 1468 1468 1468 1468 1468 1468 1469 1470 1471 1472 1473 1473 1474 1475 1475 1475 1476 1476 1476 1476 1476 1476 1476 1475
1501 1506 1506 1501 1497 1499 1500 1498 1499 1501 1503 1502 1494 1483 1474 1471 1469 1469 1468 1468 1467 1467 1467 1467 1467 1467 1468 1468 1469 1469 1470 1470 1471 1472 1472 1472 1472 1473 1473 1473 1473 1473 1472 1471
1501 1505 1504 1500 1497 1496 1495 1494 1495 1495 1494 1494 1485 1482 1474 1471 1469 1468 1467 1467 1467 1466 1466 1465 1465 1465 1466 1466 1467 1467 1467 1468 1468 1469 1469 1469 1470 1470 1470 1470 1470 1469 1469 1468
1501 1504 1503 1499 1494 1493 1492 1489 1489 1489 1489 1487 1483 1478 1470 1469 1468 1467 1466 1466 1465 1465 1464 1464 1464 1463 1463 1463 1464 1464 1465 1465 1465 1466 1466 1467 1467 1467 1467 1467 1467 1466 1465 1464
1502 1503 1503 1498 1496 1493 1489 1482 1482 1482 1480 1480 1478 1472 1469 1468 1466 1465 1465 1464 1464 1463 1462 1462 1462 1461 1462 1462 1462 1462 1462 1463 1463 1463 1464 1464 1464 1464 1465 1464 1464 1463 1462 1461
1500 1502 1504 1502 1499 1490 1478 1475 1475 1476 1475 1475 1472 1469 1468 1466 1464 1463 1463 1463 1462 1461 1461 1460 1460 1460 1460 1460 1460 1460 1460 1460 1460 1461 1461 1462 1461 1462 1462 1462 1461 1460 1460 1459
1495 1498 1503 1505 1502 1491 1478 1474 1475 1476 1473 1469 1469 1467 1466 1465 1463 1461 1461 1461 1460 1459 1459 1458 1458 1458 1458 1458 1457 1457 1457 1457 1457 1458 1458 1459 1459 1459 1459 1458 1458 1458 1457 1457
1495 1497 1502 1504 1498 1486 1475 1472 1471 1474 1472 1465 1465 1465 1464 1464 1465 1461 1458 1458 1457 1457 1457 1456 1456 1455 1455 1455 1455 1455 1454 1455 1455 1455 1456 1456 1457 1457 1457 1456 1456 1456 1455 1455
1497 1499 1501 1501 1499 1484 1473 1471 1471 1476 1469 1463 1462 1462 1462 1462 1461 1459 1457 1456 1456 1455 1455 1454 1454 1453 1453 1453 1453 1452 1452 1452 1453 1453 1454 1454 1454 1455 1455 1454 1454 1453 1453 1452
1491 1496 1498 1499 1498 1483 1469 1470 1470 1467 1463 1461 1461 1460 1460 1459 1458 1457 1456 1455 1454 1453 1452 1452 1451 1451 1451 1451 1450 1450 1450 1450 1450 1451 1451 1451 1452 1452 1452 1452 1451 1451 1451 1450
1484 1482 1482 1483 1476 1467 1465 1463 1462 1461 1461 1459 1459 1458 1458 1456 1455 1454 1454 1453 1452 1451 1451 1450 1450 1449 1449 1449 1448 1448 1448 1448 1448 1448 1448 1449 1449 1449 1450 1450 1449 1449 1448 1448
1477 1475 1476 1475 1466 1463 1462 1461 1460 1459 1458 1457 1456 1456 1455 1453 1452 1452 1451 1450 1450 1449 1448 1448 1447 1447 1446 1446 1446 1446 1446 1446 1446 1446 1446 1446 1447 1447 1447 1447 1447 1446 1446 1445
1470 1472 1472 1469 1463 1460 1457 1457 1456 1456 1455 1454 1454 1453 1452 1451 1449 1449 1448 1447 1447 1447 1446 1446 1445 1444 1444 1444 1444 1444 1443 1443 1443 1443 1443 1444 1444 1444 1444 1444 1444 1444 1443 1443
1463 1464 1465 1460 1456 1456 1453 1452 1453 1452 1451 1451 1450 1449 1449 1448 1447 1446 1445 1445 1444 1444 1443 1443 1442 1442 1442 1441 1441 1441 1441 1441 1441 1440 1441 1441 1441 1441 1441 1441 1441 1441 1441 1440